Regional Weather Roundup
Issued by NWS

Home | Current Version | Previous Version | Graphics & Text | Print | Product List | Glossary On
Versions: 1 2 3 4 5 6 7 8 9 10 11 12 13 14 15 16 17 18 19 20 21 22 23 24 25 26 27 28 29 30 31 32 33 34 35 36 37 38 39 40 41 42 43 44 45 46 47 48 49 50
292
ASUS43 KOAX 300502
RWRNE

WEATHER ROUNDUP FOR NEBRASKA
NATIONAL WEATHER SERVICE OMAHA NE
1200 AM CDT THU MAR 30 2017

NOTES: SATELLITE DATA IS BEING USED TO AUGMENT CLOUD COVER ABOVE
       12000 FEET.
       "FAIR" INDICATES FEW OR NO CLOUDS BELOW 12,000 FEET WITH NO
       SIGNIFICANT WEATHER AND/OR OBSTRUCTIONS TO VISIBILITY.

  * THESE STATIONS DO NOT REPORT WEATHER SUCH AS RAIN...SNOW OR FOG.

NEZ001>004-019>022-054>056-300600-
NEBRASKA PANHANDLE

CITY           SKY/WX    TMP DP  RH WIND       PRES   REMARKS
SCOTTSBLUFF    CLEAR     36  33  89 E5        29.94F WCI  32
ALLIANCE       CLEAR     29  28  96 W6        29.93F WCI  23
CHADRON        CLEAR     41  35  79 CALM      29.92F
KIMBALL        CLEAR     34  34 100 CALM      29.96S
SIDNEY         CLEAR     32  31  96 W5        29.95F WCI  27
$$

NEZ057>060-069>072-079>082-300600-
SOUTHWEST NEBRASKA

CITY           SKY/WX    TMP DP  RH WIND       PRES   REMARKS
NORTH PLATTE   CLOUDY    41  34  76 N15       29.91F
IMPERIAL       CLEAR     38  35  89 NW12      29.92F WCI  30
LEXINGTON      CLOUDY    39  37  90 N18       29.86F WCI  30
MCCOOK         CLOUDY    41  38  89 N14       29.88F
OGALLALA       CLEAR     38  37  93 CALM      29.92F
$$

NEZ005>010-023>029-035>040-094-300600-
NORTH CENTRAL NEBRASKA

CITY           SKY/WX    TMP DP  RH WIND       PRES   REMARKS
VALENTINE      CLOUDY    42  34  73 E7        29.95F
AINSWORTH      CLOUDY    38  37  95 NE14      29.94F WCI  30
BROKEN BOW     CLOUDY    39  36  89 N15       29.88F WCI  31
O`NEILL        CLOUDY    38  37  97 NE10      29.93F WCI  31
ORD            CLOUDY    38  34  85 N14       29.88F WCI  30
THEDFORD       CLOUDY    41  36  83 NE9       29.93F
$$

NEZ041-046>049-061>064-073>077-083>087-300600-
SOUTH CENTRAL NEBRASKA

CITY           SKY/WX    TMP DP  RH WIND       PRES   REMARKS
GRAND ISLAND   LGT RAIN  37  37 100 N15       29.83F FOG     WCI  28
AURORA         LGT RAIN  38  38 100 N18G26    29.81F WCI  29
HASTINGS       LGT RAIN  38  37  97 N23G30    29.81F FOG     WCI  27
HEBRON         LGT RAIN  40  39  97 N16G22    29.72F WCI  31
HOLDREGE       DRIZZLE   38  36  92 N15G25    29.83F WCI  30
KEARNEY *      CLOUDY    37  34  87 N20G30    29.84F WCI  27
YORK           LGT RAIN  39  39 100 N21G26    29.79F WCI  29
$$

NEZ011>018-030>034-042>045-300600-
NORTHEAST NEBRASKA

CITY           SKY/WX    TMP DP  RH WIND       PRES   REMARKS
NORFOLK        LGT SNOW  38  36  92 NE14G22   29.87F FOG     WCI  30
ALBION         LGT RAIN  38  36  90 N12       29.87F WCI  31
BLAIR          LGT RAIN  41  40  95 NE22G30   29.74F
FREMONT        DRIZZLE   41  40  95 NE9G18    29.78F
TEKAMAH        CLOUDY    42  38  85 E21       29.80F
WAYNE          CLOUDY    40  39  97 NE15      29.89F WCI  31
$$

NEZ050>053-065>068-078-088>093-300600-
SOUTHEAST NEBRASKA

CITY           SKY/WX    TMP DP  RH WIND       PRES   REMARKS
LINCOLN        LGT RAIN  42  41  96 N16G24    29.75F FOG
OMAHA EPPLEY   LGT RAIN  43  38  82 N15G25    29.74F
BEATRICE       LGT RAIN  42  42  99 NE15      29.67F
FALLS CITY     CLOUDY    49  46  90 NE12      29.63F
NEBRASKA CITY  CLOUDY    44  44 100 NE10      29.69F
PLATTSMOUTH    CLOUDY    43  40  89 NE15G21   29.72F
$$

NEZ044-045-051>053-067-300600-
OMAHA AREA

CITY           SKY/WX    TMP DP  RH WIND       PRES   REMARKS
OMAHA EPPLEY   LGT RAIN  43  38  82 N15G25    29.74F
BLAIR          LGT RAIN  41  40  95 NE22G30   29.74F
FREMONT        DRIZZLE   41  40  95 NE9G18    29.78F
MILLARD        CLOUDY    45  42  89 NE12G20   29.74F
OFFUTT AFB     LGT RAIN  43  41  91 NE18G24   29.73F
PLATTSMOUTH    CLOUDY    43  40  89 NE15G21   29.72F
WAHOO          CLOUDY    41  39  93 NE21      29.75F
$$




USA.gov is the U.S. government's official web portal to all federal, state and local government web resources and services.